Ora Direzione Vento Velocita' Vento Media Vento Raffica Max. Temperatura Wind Chill Pioggia Pressione
18:34:56.0262 °(W)0.0 Kts0.0 Kts0.0 Kts11.6 °C0.0 °C0.0 mm1031.3 Hpa
18:14:52.0262 °(W)0.0 Kts0.0 Kts0.0 Kts12.1 °C0.0 °C0.0 mm1031.3 Hpa
17:53:58.0262 °(W)0.0 Kts0.0 Kts0.0 Kts12.3 °C0.0 °C0.0 mm1031.3 Hpa
17:33:52.0262 °(W)0.0 Kts0.0 Kts0.0 Kts12.8 °C0.0 °C0.0 mm1031.0 Hpa
17:13:55.0262 °(W)0.0 Kts0.0 Kts0.0 Kts12.8 °C0.0 °C0.0 mm1031.2 Hpa
16:53:44.0262 °(W)0.0 Kts0.0 Kts0.0 Kts13.4 °C0.0 °C0.0 mm1031.0 Hpa
16:32:49.0262 °(W)0.0 Kts0.0 Kts0.0 Kts14.2 °C0.0 °C0.0 mm1031.0 Hpa
16:14:50.0262 °(W)0.0 Kts0.0 Kts0.0 Kts16.3 °C0.0 °C0.0 mm1031.3 Hpa
15:54:17.0262 °(W)0.0 Kts0.0 Kts0.0 Kts17.0 °C0.0 °C0.0 mm1031.4 Hpa
15:33:56.0262 °(W)0.0 Kts0.0 Kts0.0 Kts16.9 °C0.0 °C0.0 mm1031.5 Hpa
15:13:48.0262 °(W)0.0 Kts0.0 Kts0.0 Kts16.7 °C0.0 °C0.0 mm1031.7 Hpa
14:53:35.0262 °(W)0.0 Kts0.0 Kts0.0 Kts16.9 °C0.0 °C0.0 mm1031.9 Hpa
14:33:05.0262 °(W)0.0 Kts0.0 Kts0.0 Kts16.7 °C0.0 °C0.0 mm1032.0 Hpa
14:12:46.0262 °(W)0.0 Kts0.0 Kts0.0 Kts16.4 °C0.0 °C0.0 mm1032.0 Hpa
13:54:48.0262 °(W)0.0 Kts0.0 Kts0.0 Kts16.1 °C0.0 °C0.0 mm1032.3 Hpa
13:34:30.0262 °(W)0.0 Kts0.0 Kts0.0 Kts16.1 °C0.0 °C0.0 mm1032.4 Hpa
13:14:04.0262 °(W)0.0 Kts0.0 Kts0.0 Kts16.1 °C0.0 °C0.0 mm1032.5 Hpa
12:53:47.0262 °(W)0.0 Kts0.0 Kts0.0 Kts15.6 °C0.0 °C0.0 mm1032.9 Hpa
12:33:23.0262 °(W)0.0 Kts0.0 Kts0.0 Kts15.0 °C0.0 °C0.0 mm1033.0 Hpa
12:12:53.0262 °(W)0.0 Kts0.0 Kts0.0 Kts14.2 °C0.0 °C0.0 mm1033.2 Hpa